FW6369 Weather Reports


Display with metric or nautical units.
time (UTC)temp
F
wind
direction
speed
MPH
gust
MPH
rain 1hr
in
rain 24hr
in
rain mn
in
humidity
%
barometer
mb
20260905230104 78 243 1.0 5.0 0.00 0.00 0.00 44 1013.7
20260905224609 78 223 0.0 3.0 0.00 0.00 0.00 40 1013.8
20260905223052 78 333 1.0 4.0 0.00 0.00 0.00 42 1014.0
20260905221615 77 126 1.0 5.0 0.00 0.00 0.00 43 1014.0
20260905220100 78 269 1.0 6.0 0.00 0.00 0.00 42 1014.0
20260905214556 78 258 0.0 5.0 0.00 0.00 0.00 42 1014.1
20260905213106 78 261 2.0 6.0 0.00 0.00 0.00 44 1014.2
20260905211601 78 115 0.0 6.0 0.00 0.00 0.00 47 1014.1
20260905210107 78 308 0.0 5.0 0.00 0.00 0.00 48 1014.1
20260905204603 78 319 1.0 3.0 0.00 0.00 0.00 47 1014.2
20260905203105 78 247 1.0 3.0 0.00 0.00 0.00 49 1014.1
20260905201612 77 254 0.0 4.0 0.00 0.00 0.00 52 1014.2
20260905200057 77 0 0.0 1.0 0.00 0.00 0.00 49 1014.4
20260905194552 77 233 0.0 2.0 0.00 0.00 0.00 53 1014.5
20260905193111 75 0 0.0 2.0 0.00 0.00 0.00 54 1014.7
20260905191557 74 0 0.0 2.0 0.00 0.00 0.00 57 1014.8
20260905190058 72 254 0.0 3.0 0.00 0.00 0.00 61 1014.8
20260905184607 71 9 0.0 2.0 0.00 0.00 0.00 63 1015.0
20260905183058 70 0 0.0 2.0 0.00 0.00 0.00 67 1015.1
20260905181609 69 78 0.0 4.0 0.00 0.00 0.00 67 1015.1
20260905180056 69 178 0.0 2.0 0.00 0.00 0.00 68 1015.1
20260905174605 69 175 0.0 2.0 0.00 0.00 0.00 68 1015.1
20260905173056 67 0 0.0 3.0 0.00 0.00 0.00 73 1015.1
20260905171602 67 0 0.0 2.0 0.00 0.00 0.00 74 1015.1
20260905170110 65 0 0.0 2.0 0.00 0.00 0.00 76 1015.1
20260905164601 63 0 0.0 1.0 0.00 0.00 0.00 80 1015.1
20260905163106 62 0 0.0 2.0 0.00 0.00 0.00 81 1014.9
20260905161606 61 0 0.0 1.0 0.00 0.00 0.00 83 1015.0
20260905160100 58 0 0.0 2.0 0.00 0.00 0.00 84 1014.9
20260905154619 57 0 0.0 2.0 0.00 0.00 0.00 86 1014.9
20260905153103 57 0 0.0 0.0 0.00 0.00 0.00 88 1014.9
20260905151607 56 0 0.0 1.0 0.00 0.00 0.00 89 1014.9
20260905150058 56 0 0.0 0.0 0.00 0.00 0.00 94 1014.6
20260905144600 51 0 0.0 0.0 0.00 0.00 0.00 96 1014.7
20260905143057 48 0 0.0 0.0 0.00 0.00 0.00 96 1014.8
20260905141559 47 0 0.0 0.0 0.00 0.00 0.00 95 1014.7
20260905140106 47 0 0.0 0.0 0.00 0.00 0.00 95 1014.6
20260905134558 47 0 0.0 0.0 0.00 0.00 0.00 95 1014.5
20260905133058 48 0 0.0 0.0 0.00 0.00 0.00 95 1014.4
20260905131607 48 0 0.0 0.0 0.00 0.00 0.00 95 1014.5
20260905130057 48 0 0.0 0.0 0.00 0.00 0.00 95 1014.4
20260905124603 48 0 0.0 0.0 0.00 0.00 0.00 95 1014.4
20260905123058 48 0 0.0 0.0 0.00 0.00 0.00 94 1014.2
20260905121555 49 0 0.0 0.0 0.00 0.00 0.00 94 1014.3
20260905114600 49 0 0.0 0.0 0.00 0.00 0.00 94 1014.5
20260905113100 49 0 0.0 0.0 0.00 0.00 0.00 94 1014.5
20260905111610 50 0 0.0 0.0 0.00 0.00 0.00 93 1014.5
20260905104615 50 0 0.0 1.0 0.00 0.00 0.00 93 1014.5
20260905103058 51 75 0.0 2.0 0.00 0.00 0.00 93 1014.6
20260905101603 51 0 0.0 1.0 0.00 0.00 0.00 94 1014.5
20260905100101 51 72 0.0 1.0 0.00 0.00 0.00 93 1014.5
20260905094553 52 0 0.0 1.0 0.00 0.00 0.00 93 1014.6
20260905093103 52 0 0.0 1.0 0.00 0.00 0.00 93 1014.6
20260905091614 52 0 0.0 0.0 0.00 0.00 0.00 92 1014.6
20260905090059 52 0 0.0 1.0 0.00 0.00 0.00 92 1014.7
20260905084613 52 0 0.0 0.0 0.00 0.00 0.00 91 1014.6
20260905083049 53 0 0.0 1.0 0.00 0.00 0.00 92 1014.7
20260905081556 54 0 0.0 1.0 0.00 0.00 0.00 92 1014.9
20260905080107 53 0 0.0 1.0 0.00 0.00 0.00 92 1014.6
20260905074609 54 0 0.0 1.0 0.00 0.00 0.00 91 1014.8
20260905073059 54 0 0.0 1.0 0.00 0.00 0.00 91 1014.8
20260905071555 54 0 0.0 1.0 0.00 0.00 0.00 92 1014.7
20260905070111 54 0 0.0 1.0 0.00 0.00 0.00 91 1014.7
20260905064601 54 0 0.0 0.0 0.00 0.00 0.00 90 1014.6
20260905063101 55 0 0.0 1.0 0.00 0.00 0.00 90 1014.6
20260905061613 55 0 0.0 1.0 0.00 0.00 0.00 90 1014.5
20260905054603 57 0 0.0 0.0 0.00 0.00 0.00 88 1014.7
20260905053057 57 0 0.0 0.0 0.00 0.00 0.00 87 1014.7
20260905051602 58 0 0.0 0.0 0.00 0.00 0.00 85 1014.7
20260905050058 59 0 0.0 0.0 0.00 0.00 0.00 85 1014.9
20260905044556 59 0 0.0 0.0 0.00 0.00 0.00 84 1014.9
20260905043105 60 0 0.0 1.0 0.00 0.00 0.00 82 1014.7
20260905041557 60 0 0.0 1.0 0.00 0.00 0.00 81 1014.6
20260905040059 61 76 0.0 1.0 0.00 0.00 0.00 79 1014.3
20260905034604 62 0 0.0 1.0 0.00 0.00 0.00 74 1014.2
20260905033058 63 0 0.0 1.0 0.00 0.00 0.00 72 1014.0
20260905031558 63 0 0.0 1.0 0.00 0.00 0.00 70 1013.9
20260905030056 64 0 0.0 1.0 0.00 0.00 0.00 69 1013.9
20260905024600 65 0 0.0 1.0 0.00 0.00 0.00 67 1013.8
20260905023101 66 0 0.0 1.0 0.00 0.00 0.00 65 1013.9
20260905021557 68 0 0.0 1.0 0.00 0.00 0.00 62 1013.7
20260905020100 70 0 0.0 2.0 0.00 0.00 0.00 59 1013.7
20260905014605 72 271 0.0 3.0 0.00 0.00 0.00 56 1013.8
20260905013104 72 259 0.0 3.0 0.00 0.00 0.00 54 1013.6
20260905011607 73 252 0.0 3.0 0.00 0.00 0.00 54 1013.7
20260905010109 72 0 1.0 4.0 0.00 0.00 0.00 54 1013.6
20260905004603 72 229 1.0 6.0 0.00 0.00 0.00 53 1013.4
20260905003058 73 285 0.0 5.0 0.00 0.00 0.00 53 1013.5
20260905001558 73 259 1.0 5.0 0.00 0.00 0.00 53 1013.5
20260905000105 74 234 0.0 8.0 0.00 0.00 0.00 54 1013.4
20260904234603 74 247 1.0 7.0 0.00 0.00 0.00 55 1013.4
20260904233055 75 256 1.0 4.0 0.00 0.00 0.00 53 1013.2
20260904231557 75 225 1.0 6.0 0.00 0.00 0.00 53 1013.2